East Quogue, NY

1:51 AM EST on December 11, 2016 (GMT -0500)
The Gabreski

Weather History for KFOK - March, 2014

Change the Weather History Date:

Saturday, March 22, 2014

  Actual Average Record
Temperature  
Mean Temperature 42 °F -  
Max Temperature 62 °F 46 °F 69 °F (2012)
Min Temperature 21 °F 29 °F 14 °F (2004)
Degree Days  
Heating Degree Days 24    
Moisture  
Dew Point 28 °F    
Average Humidity 59    
Maximum Humidity 79    
Minimum Humidity 28    
Precipitation  
Precipitation 0.00 in - - ()
Sea Level Pressure  
Sea Level Pressure 29.92 in    
Wind  
Wind Speed 6 mph (SSW)    
Max Wind Speed 15 mph    
Max Gust Speed 29 mph    
Visibility 10 miles    
Events      
Averages and records for this station are not official NWS values.
T = Trace of Precipitation, MM = Missing Value Source: NWS Daily Summary

Daily Weather History Graph

Daily Weather History Graph

Search for Another Location

Airport or City:

Trip Planner

Search our weather history database for the weather conditions in past years. The results will help you decide how hot, cold, wet, or windy it might be!

Date:

Astronomy

Mar. 22, 2014 Rise Set
Actual Time 6:50 AM EDT 7:04 PM EDT
Civil Twilight 6:23 AM EDT 7:32 PM EDT
Nautical Twilight 5:51 AM EDT 8:04 PM EDT
Astronomical Twilight 5:18 AM EDT 8:37 PM EDT
Moon 12:22 AM EDT (3/22) 10:29 AM EDT (3/22)
Length of Visible Light 13h 08m
Length of Day
12h 14m
Waning Gibbous, 65% of the Moon is Illuminated
Mar 22
Waning Gibbous
Mar 23
Last Quarter
Mar 30
New
Apr 7
First Quarter
Apr 15
Full

Hourly Weather History & Observations

Time (EDT) Temp. Windchill Dew Point Humidity Pressure Visibility Wind Dir Wind Speed Gust Speed Precip Events Conditions
12:53 AM 25.0 °F - 15.1 °F 66% 30.09 in 10.0 mi Calm Calm - N/A   Clear
1:53 AM 21.9 °F - 14.0 °F 72% 30.09 in 10.0 mi Calm Calm - N/A   Clear
2:53 AM 21.0 °F - 14.0 °F 74% 30.09 in 10.0 mi Calm Calm - N/A   Clear
3:53 AM 21.9 °F - 15.1 °F 75% 30.07 in 10.0 mi Calm Calm - N/A   Mostly Cloudy
4:53 AM 25.0 °F 18.1 °F 17.1 °F 72% 30.04 in 10.0 mi ESE 5.8 mph - N/A   Clear
5:53 AM 37.0 °F 31.0 °F 28.9 °F 73% 30.02 in 10.0 mi SE 8.1 mph - N/A   Partly Cloudy
6:53 AM 39.0 °F 33.4 °F 30.9 °F 73% 29.99 in 10.0 mi SE 8.1 mph 16.1 mph N/A   Mostly Cloudy
7:53 AM 39.9 °F 32.9 °F 34.0 °F 79% 29.96 in 10.0 mi SE 11.5 mph 18.4 mph N/A   Scattered Clouds
8:53 AM 43.0 °F 36.8 °F 33.1 °F 68% 29.91 in 10.0 mi SE 11.5 mph 20.7 mph N/A   Clear
9:53 AM 46.9 °F - 36.0 °F 66% 29.87 in 10.0 mi SSE 13.8 mph 23.0 mph N/A   Clear
10:53 AM 51.1 °F - 39.0 °F 63% 29.82 in 10.0 mi South 15.0 mph 25.3 mph N/A   Clear
11:53 AM 53.1 °F - 37.0 °F 55% 29.78 in 10.0 mi SSW 13.8 mph 28.8 mph N/A   Clear
12:53 PM 52.0 °F - 36.0 °F 54% 29.79 in 10.0 mi SW 11.5 mph 25.3 mph N/A   Clear
1:53 PM 48.0 °F - 36.0 °F 63% 29.77 in 10.0 mi SW 8.1 mph - N/A   Mostly Cloudy
2:53 PM 52.0 °F - 37.0 °F 57% 29.77 in 10.0 mi SSW 8.1 mph - N/A   Clear
3:53 PM 51.1 °F - 37.0 °F 59% 29.78 in 10.0 mi SSW 8.1 mph - N/A   Clear
4:53 PM 57.0 °F - 34.0 °F 42% 29.79 in 10.0 mi SW 9.2 mph 18.4 mph N/A   Clear
5:53 PM 62.1 °F - 28.0 °F 28% 29.81 in 10.0 mi West 13.8 mph 26.5 mph N/A   Clear
6:53 PM 57.9 °F - 26.1 °F 30% 29.85 in 10.0 mi West 8.1 mph - N/A   Clear
7:53 PM 44.1 °F - 30.9 °F 60% 29.88 in 10.0 mi Calm Calm - N/A   Clear
8:53 PM 46.9 °F - 28.9 °F 50% 29.92 in 10.0 mi NNW 11.5 mph - N/A   Clear
9:53 PM 46.0 °F 41.0 °F 26.1 °F 46% 29.96 in 10.0 mi North 10.4 mph - N/A   Clear
10:53 PM 44.1 °F 39.0 °F 23.0 °F 43% 29.98 in 10.0 mi North 9.2 mph - N/A   Clear
11:53 PM 39.9 °F 34.5 °F 25.0 °F 55% 30.00 in 10.0 mi NNW 8.1 mph - N/A   Clear